Date String (YYYY-MM-DD hh:mm:ss) UTC,Instrument flags,Ambient pressure (hPa),Sample flow (lpm),Bypass flow (lpm),Sample temperature (°C),Ambient temperature (°C),ASC tube jacket temperature (°C),LED temperature (°C),Box temperature (°C),Sample RH (%),Span deviation,Mass concentration (μg/m³),Mass concentration (μg/m³),Mass concentration (μg/m³)
DateTimeUTC,F1_M11,P_M11,Q1_M11,Q2_M11,T1_M11,T2_M11,T3_M11,T4_M11,T5_M11,U1_M11,ZSPAN_M11,X0_M11,X2_M11,X1_M11
2021-12-26 17:00:00,,0809.1,5.01,0.00,22.2,21.4,00.0,31.4,23.8,15.3,0000.0,0001.55,0000.43,0000.21
2021-12-26 17:01:00,,0809.1,4.99,0.00,22.2,21.5,00.0,31.4,23.8,15.2,0000.0,0001.29,0000.41,0000.21
2021-12-26 17:02:00,,0809.1,4.99,0.00,22.2,21.4,00.0,31.4,23.8,14.8,0000.0,0001.01,0000.40,0000.21
2021-12-26 17:03:00,,0809.1,5.01,0.00,22.2,21.4,00.0,31.4,23.8,14.8,0000.0,0001.00,0000.39,0000.20
2021-12-26 17:04:00,,0809.0,5.00,0.00,22.2,21.4,00.0,31.4,23.8,14.7,0000.0,0000.92,0000.34,0000.20
2021-12-26 17:05:00,,0809.0,4.99,0.00,22.2,21.4,00.0,31.3,23.8,14.4,0000.0,0000.93,0000.34,0000.20
2021-12-26 17:06:00,,0808.9,5.01,0.00,22.2,21.4,00.0,31.3,23.8,14.1,0000.0,0001.00,0000.37,0000.21
2021-12-26 17:07:00,,0808.9,4.99,0.00,22.2,21.4,00.0,31.3,23.8,13.9,0000.0,0001.00,0000.37,0000.20
2021-12-26 17:08:00,,0808.9,5.00,0.00,22.2,21.4,00.0,31.3,23.8,13.8,0000.0,0001.05,0000.39,0000.20
2021-12-26 17:09:00,,0808.9,5.01,0.00,22.2,21.5,00.0,31.3,23.8,13.8,0000.0,0000.96,0000.39,0000.20
2021-12-26 17:10:00,,0809.0,5.00,0.00,22.2,21.5,00.0,31.3,23.7,14.0,0000.0,0000.65,0000.37,0000.21
2021-12-26 17:11:00,,0809.0,4.99,0.00,22.2,21.4,00.0,31.3,23.7,14.0,0000.0,0000.59,0000.34,0000.20
2021-12-26 17:12:00,,0808.9,5.00,0.00,22.2,21.4,00.0,31.3,23.8,14.3,0000.0,0000.56,0000.33,0000.20
2021-12-26 17:13:00,,0808.9,5.01,0.00,22.2,21.4,00.0,31.3,23.8,13.8,0000.0,0000.55,0000.32,0000.21
2021-12-26 17:14:00,,0808.9,4.99,0.00,22.2,21.4,00.0,31.3,23.9,13.6,0000.0,0000.54,0000.32,0000.21
2021-12-26 17:15:00,,0808.9,5.01,0.00,22.2,21.4,00.0,31.3,23.9,13.7,0000.0,0001.06,0000.33,0000.22
2021-12-26 17:16:00,,0808.9,4.98,0.00,22.3,21.4,00.0,31.3,23.9,13.7,0000.0,0002.36,0000.33,0000.22
2021-12-26 17:17:00,,0808.8,5.01,0.00,22.3,21.4,00.0,31.3,23.9,13.7,0000.0,0002.32,0000.32,0000.22
2021-12-26 17:18:00,,0808.7,5.00,0.00,22.3,21.4,00.0,31.3,23.9,13.9,0000.0,0002.31,0000.31,0000.23
2021-12-26 17:19:00,,0808.7,5.01,0.00,22.3,21.4,00.0,31.3,23.9,13.7,0000.0,0002.33,0000.32,0000.23
2021-12-26 17:20:00,,0808.7,4.99,0.00,22.3,21.4,00.0,31.3,23.9,13.4,0000.0,0002.34,0000.33,0000.23
2021-12-26 17:21:00,,0808.7,5.00,0.00,22.3,21.5,00.0,31.3,23.9,13.5,0000.0,0002.41,0000.35,0000.24
2021-12-26 17:22:00,,0808.7,4.99,0.00,22.3,21.5,00.0,31.3,23.9,13.4,0000.0,0002.46,0000.37,0000.24
2021-12-26 17:23:00,,0808.7,5.01,0.00,22.3,21.4,00.0,31.3,23.9,13.0,0000.0,0002.55,0000.39,0000.23
2021-12-26 17:24:00,,0808.6,4.98,0.00,22.3,21.5,00.0,31.3,23.9,12.7,0000.0,0004.22,0000.40,0000.23
2021-12-26 17:25:00,,0808.7,5.00,0.00,22.3,21.5,00.0,31.3,24.0,12.6,0000.0,0004.40,0000.40,0000.23
2021-12-26 17:26:00,,0808.7,5.01,0.00,22.3,21.5,00.0,31.3,23.9,12.6,0000.0,0003.71,0000.39,0000.22
2021-12-26 17:27:00,,0808.6,4.99,0.00,22.3,21.4,00.0,31.3,23.9,12.6,0000.0,0002.55,0000.38,0000.22
2021-12-26 17:28:00,,0808.6,5.01,0.00,22.3,21.5,00.0,31.3,23.9,12.7,0000.0,0002.63,0000.39,0000.23
2021-12-26 17:29:00,,0808.6,5.00,0.00,22.3,21.5,00.0,31.3,23.9,12.8,0000.0,0002.64,0000.39,0000.22
2021-12-26 17:30:00,,0808.6,4.99,0.00,22.3,21.5,00.0,31.3,23.9,12.8,0000.0,0002.79,0000.41,0000.22
2021-12-26 17:31:00,,0808.6,4.99,0.00,22.3,21.5,00.0,31.3,23.9,12.8,0000.0,0002.82,0000.40,0000.22
2021-12-26 17:32:00,,0808.6,5.00,0.00,22.3,21.5,00.0,31.3,23.9,12.8,0000.0,0002.80,0000.38,0000.22
2021-12-26 17:33:00,,0808.6,4.99,0.00,22.3,21.4,00.0,31.3,23.9,12.7,0000.0,0002.77,0000.37,0000.23
2021-12-26 17:34:00,,0808.7,5.02,0.00,22.3,21.4,00.0,31.3,23.9,12.7,0000.0,0002.66,0000.34,0000.23
2021-12-26 17:35:00,,0808.6,4.99,0.00,22.3,21.4,00.0,31.3,23.9,12.7,0000.0,0001.15,0000.35,0000.23
2021-12-26 17:36:00,,0808.7,5.01,0.00,22.3,21.4,00.0,31.3,23.9,12.6,0000.0,0002.07,0000.36,0000.23
2021-12-26 17:37:00,,0808.7,5.00,0.00,22.3,21.4,00.0,31.3,23.9,12.8,0000.0,0002.34,0000.39,0000.24
2021-12-26 17:38:00,,0808.7,5.01,0.00,22.3,21.4,00.0,31.3,23.9,12.7,0000.0,0002.35,0000.40,0000.25
2021-12-26 17:39:00,,0808.7,4.99,0.00,22.2,21.4,00.0,31.3,23.9,12.4,0000.0,0002.31,0000.40,0000.25
2021-12-26 17:40:00,,0808.6,5.00,0.00,22.2,21.4,00.0,31.3,23.9,12.3,0000.0,0002.35,0000.42,0000.26
2021-12-26 17:41:00,,0808.6,5.02,0.00,22.2,21.5,00.0,31.3,23.9,12.4,0000.0,0002.24,0000.42,0000.26
2021-12-26 17:42:00,,0808.6,5.00,0.00,22.2,21.5,00.0,31.3,23.9,12.6,0000.0,0002.31,0000.45,0000.26
2021-12-26 17:43:00,,0808.6,4.99,0.00,22.2,21.5,00.0,31.3,23.9,12.7,0000.0,0002.39,0000.47,0000.26
2021-12-26 17:44:00,,0808.4,5.01,0.00,22.2,21.5,00.0,31.3,23.9,12.5,0000.0,0002.44,0000.49,0000.26
2021-12-26 17:45:00,,0808.5,5.00,0.00,22.2,21.5,00.0,31.3,23.9,12.5,0000.0,0002.56,0000.54,0000.27
2021-12-26 17:46:00,,0808.5,5.00,0.00,22.2,21.5,00.0,31.3,23.9,12.5,0000.0,0002.60,0000.56,0000.28
2021-12-26 17:47:00,,0808.6,4.98,0.00,22.2,21.5,00.0,31.3,23.9,12.4,0000.0,0001.16,0000.55,0000.28
2021-12-26 17:48:00,,0808.6,5.01,0.00,22.2,21.5,00.0,31.3,23.8,12.5,0000.0,0001.14,0000.54,0000.29
2021-12-26 17:49:00,,0808.6,5.01,0.00,22.2,21.5,00.0,31.3,23.8,12.5,0000.0,0001.28,0000.59,0000.30
2021-12-26 17:50:00,,0808.6,4.99,0.00,22.1,21.5,00.0,31.3,23.8,12.6,0000.0,0001.43,0000.65,0000.30
2021-12-26 17:51:00,,0808.6,5.00,0.00,22.1,21.5,00.0,31.2,23.8,12.6,0000.0,0001.41,0000.65,0000.31
2021-12-26 17:52:00,,0808.6,5.00,0.00,22.1,21.5,00.0,31.2,23.8,12.7,0000.0,0001.40,0000.65,0000.32
2021-12-26 17:53:00,,0808.5,4.99,0.00,22.1,21.5,00.0,31.2,23.8,12.8,0000.0,0001.35,0000.66,0000.33
2021-12-26 17:54:00,,0808.5,5.01,0.00,22.1,21.4,00.0,31.2,23.8,12.8,0000.0,0001.29,0000.65,0000.34
2021-12-26 17:55:00,,0808.4,5.01,0.00,22.1,21.4,00.0,31.2,23.8,12.9,0000.0,0001.38,0000.69,0000.35
2021-12-26 17:56:00,,0808.5,4.99,0.00,22.1,21.4,00.0,31.2,23.8,13.1,0000.0,0004.86,0000.70,0000.37
2021-12-26 17:57:00,,0808.4,5.02,0.00,22.1,21.4,00.0,31.2,23.8,13.0,0000.0,0005.85,0000.70,0000.38
2021-12-26 17:58:00,,0808.4,5.00,0.00,22.1,21.4,00.0,31.2,23.8,13.2,0000.0,0006.01,0000.74,0000.39
2021-12-26 17:59:00,,0808.4,5.01,0.00,22.1,21.4,00.0,31.2,23.8,13.3,0000.0,0007.10,0000.80,0000.39
